Location: Newark
(43.6583°N, 1.6617°E)
Time: 04:58:59
(UTC+00:00)

Vanguard 1 - All Passes

Search period start: 22 August 2019 00:00
Search period end: 01 September 2019 00:00
Orbit: 655 x 3829 km, 34.2° (Epoch: 20 August)

Date Brightness Start Highest point End Pass type
(mag) Time Alt. Az. Time Alt. Az. Time Alt. Az.
22 Aug - 09:07:12 10° SSE 09:08:00 10° SSE 09:08:45 10° SSE daylight
22 Aug - 11:23:48 10° SW 11:27:34 23° S 11:31:09 10° ESE daylight
22 Aug - 13:43:10 10° WSW 13:46:54 26° S 13:51:27 10° SE daylight
22 Aug - 16:03:40 10° SW 16:06:45 15° SSW 16:10:33 10° SSE daylight
23 Aug - 09:25:41 10° SSW 09:28:53 15° SSE 09:31:36 10° SE daylight
23 Aug - 11:44:28 10° SW 11:48:23 26° S 11:52:08 10° ESE daylight
23 Aug - 14:04:11 10° WSW 14:07:45 22° S 14:12:04 10° SE daylight
24 Aug - 09:45:37 10° SSW 09:49:44 19° SSE 09:53:06 10° ESE daylight
24 Aug - 12:05:16 10° WSW 12:09:11 27° S 12:13:02 10° ESE daylight
24 Aug - 14:25:24 10° WSW 14:28:35 18° SSW 14:32:23 10° SSE daylight
25 Aug - 07:48:30 10° S 07:50:34 11° SSE 07:52:25 10° SE daylight
25 Aug - 10:06:01 10° SW 10:10:36 23° S 10:14:17 10° ESE daylight
25 Aug - 12:26:11 10° WSW 12:29:59 25° S 12:33:49 10° SE daylight
25 Aug - 14:47:02 10° SW 14:49:26 14° SSW 14:52:12 10° SSE daylight
26 Aug - 08:07:06 10° SSW 08:11:33 16° SSE 08:15:02 10° SE daylight
26 Aug - 10:26:40 10° SW 10:31:27 26° S 10:35:16 10° ESE daylight
26 Aug - 12:47:12 10° WSW 12:50:47 23° S 12:54:27 10° SE daylight
27 Aug - 08:26:55 10° SSW 08:32:30 21° SSE 08:36:36 10° ESE daylight
27 Aug - 10:47:29 10° WSW 10:52:17 28° S 10:56:10 10° ESE daylight
27 Aug - 13:08:23 10° WSW 13:11:34 19° SSW 13:14:53 10° SSE daylight
28 Aug - 06:29:07 10° S 06:32:50 12° SSE 06:35:56 10° SE daylight
28 Aug - 08:47:14 10° SW 08:53:26 25° S 08:57:49 10° ESE daylight
28 Aug - 11:08:26 10° WSW 11:13:06 28° S 11:16:57 10° SE daylight
28 Aug - 13:29:52 10° SW 13:32:20 14° SSW 13:34:55 10° SSE daylight
29 Aug - 06:47:38 10° SSW 06:53:53 17° SSE 06:58:30 10° ESE daylight
29 Aug - 09:07:52 10° SW 09:14:21 29° S 09:18:49 10° ESE daylight
29 Aug - 11:29:28 10° WSW 11:33:53 26° S 11:37:38 10° SE daylight
29 Aug - 13:52:39 10° SSW 13:53:05 10° SSW 13:53:31 10° SSW daylight
30 Aug - 07:07:16 10° SSW 07:14:56 23° SSE 07:20:09 10° ESE daylight
30 Aug - 09:28:42 10° WSW 09:35:15 32° S 09:39:43 10° ESE daylight
30 Aug - 11:50:37 10° WSW 11:54:38 23° SSW 11:58:11 10° SE daylight
31 Aug - 05:09:19 10° S 05:14:38 13° SSE 05:18:57 10° SE daylight
31 Aug - 07:27:28 10° SW 07:35:57 28° SSE 07:41:25 10° ESE daylight
31 Aug - 09:49:41 10° WSW 09:56:06 34° S 10:00:32 10° ESE daylight
31 Aug - 12:11:56 10° WSW 12:15:21 18° SSW 12:18:28 10° SSE daylight
